Weather History for New Orleans Lakefront, LA

Change the Weather History Date:

Tuesday, February 12, 2013

  Actual Average Record
Temperature  
Mean Temperature 67 °F 56 °F  
Max Temperature 75 °F 65 °F 81 °F (2000)
Min Temperature 58 °F 47 °F 26 °F (1981)
Degree Days  
Heating Degree Days 0 10  
Month to date heating degree days 56 126  
Since 1 July heating degree days 741 982  
Cooling Degree Days 2 1  
Month to date cooling degree days 7 12  
Year to date cooling degree days 32 28  
Growing Degree Days 20 (Base 50)    
Moisture  
Dew Point 62 °F    
Average Humidity 91    
Maximum Humidity 97    
Minimum Humidity 84    
Precipitation  
Precipitation 0.04 in 0.20 in 1.87 in (1971)
Month to date precipitation 3.13 2.37  
Year to date precipitation 9.72 7.52  
Snow  
Snow 0.00 in - - ()
Month to date snowfall 0.0  
Since 1 July snowfall 0.0  
Snow Depth 0.00 in    
Sea Level Pressure  
Sea Level Pressure 29.86 in    
Wind  
Wind Speed 10 mph (ESE)    
Max Wind Speed 18 mph    
Max Gust Speed 24 mph    
Visibility 6 miles    
Events      
T = Trace of Precipitation, MM = Missing Value Source: NWS Daily Summary

Daily Weather History Graph

Daily Weather History Graph

Search for Another Location

Airport:

Trip Planner

Search our weather history database for the weather conditions in past years. The results will help you decide how hot, cold, wet, or windy it might be!

Date:

Astronomy

Feb. 12, 2013 Rise Set
Actual Time 6:42 AM CST 5:46 PM CST
Civil Twilight 6:17 AM CST 6:11 PM CST
Nautical Twilight 5:49 AM CST 6:39 PM CST
Astronomical Twilight 5:21 AM CST 7:07 PM CST
Moon 7:55 AM CST (2/12) 8:29 PM CST (2/12)
Length of Visible Light 11h 53m
Length of Day
11h 04m
Waxing Crescent, 7% of the Moon is Illuminated
Feb 12
Waxing Crescent
Feb 17
First Quarter
Feb 25
Full
Mar 4
Last Quarter
Mar 11
New

Hourly Weather History & Observations

Time (CST) Temp. Dew Point Humidity Pressure Visibility Wind Dir Wind Speed Gust Speed Precip Events Conditions
12:27 AM 62.6 °F 55.4 °F 77% 30.04 in 10.0 mi East 12.7 mph - N/A   Overcast
12:34 AM 62.6 °F 55.4 °F 77% 30.04 in 10.0 mi East 11.5 mph - N/A   Overcast
12:53 AM 63.0 °F 55.9 °F 78% 30.01 in 10.0 mi East 15.0 mph - N/A   Overcast
1:53 AM 62.1 °F 55.9 °F 80% 30.00 in 10.0 mi ENE 16.1 mph - N/A   Overcast
2:53 AM 62.1 °F 55.9 °F 80% 30.00 in 10.0 mi ENE 13.8 mph - N/A   Overcast
3:53 AM 62.1 °F 55.9 °F 80% 29.97 in 10.0 mi ENE 16.1 mph - N/A   Overcast
4:53 AM 62.1 °F 55.9 °F 80% 29.96 in 7.0 mi East 16.1 mph - N/A   Overcast
5:53 AM 62.1 °F 57.0 °F 84% 29.95 in 4.0 mi East 10.4 mph - N/A   Haze
6:53 AM 63.0 °F 57.9 °F 84% 29.94 in 7.0 mi East 10.4 mph - N/A   Overcast
7:53 AM 64.0 °F 57.9 °F 80% 29.92 in 4.0 mi ESE 11.5 mph - N/A   Haze
8:53 AM 64.9 °F 59.0 °F 81% 29.93 in 5.0 mi East 10.4 mph - N/A   Haze
9:53 AM 66.0 °F 60.1 °F 81% 29.90 in 4.0 mi ESE 11.5 mph - 0.00 in   Haze
10:53 AM 66.0 °F 61.0 °F 84% 29.90 in 4.0 mi East 12.7 mph - N/A   Haze
11:23 AM 66.2 °F 60.8 °F 83% 29.89 in 2.5 mi East 11.5 mph - N/A   Haze
11:53 AM 66.0 °F 61.0 °F 84% 29.86 in 2.5 mi East 13.8 mph - N/A   Haze
12:00 PM 66.2 °F 60.8 °F 83% 29.87 in 1.2 mi East 13.8 mph - N/A   Haze
12:53 PM 64.9 °F 61.0 °F 87% 29.82 in 1.2 mi East 10.4 mph - 0.00 in   Overcast
1:22 PM 66.2 °F 60.8 °F 83% 29.83 in 2.5 mi East 10.4 mph - N/A   Haze
1:53 PM 66.9 °F 62.1 °F 84% 29.78 in 2.0 mi East 5.8 mph - 0.00 in   Haze
2:13 PM 66.2 °F 62.6 °F 88% 29.80 in 1.8 mi East 4.6 mph - N/A   Haze
2:33 PM 68.0 °F 62.6 °F 83% 29.78 in 2.0 mi ESE 4.6 mph - N/A   Haze
2:39 PM 69.8 °F 64.4 °F 83% 29.78 in 3.0 mi SE 3.5 mph - N/A   Overcast
2:53 PM 73.9 °F 68.0 °F 82% 29.75 in 6.0 mi South 9.2 mph - N/A   Haze
3:53 PM 77.0 °F 68.0 °F 74% 29.74 in 7.0 mi SSW 19.6 mph 27.6 mph 0.01 in   Overcast
4:53 PM 75.9 °F 68.0 °F 76% 29.74 in 7.0 mi SSW 18.4 mph - N/A   Overcast
5:53 PM 73.9 °F 66.9 °F 79% 29.75 in 6.0 mi SW 13.8 mph - 0.00 in   Haze
6:00 PM 73.4 °F 66.2 °F 78% 29.77 in 8.0 mi SW 15.0 mph - N/A   Overcast
6:53 PM 73.9 °F 66.9 °F 79% 29.76 in 7.0 mi SW 15.0 mph - N/A   Mostly Cloudy
7:01 PM 73.4 °F 66.2 °F 78% 29.78 in 7.0 mi SW 17.3 mph - N/A   Scattered Clouds
7:53 PM 73.0 °F 66.0 °F 79% 29.77 in 7.0 mi SW 13.8 mph - N/A   Partly Cloudy
8:14 PM 73.4 °F 66.2 °F 78% 29.79 in 8.0 mi SW 12.7 mph - N/A   Mostly Cloudy
8:25 PM 71.6 °F 64.4 °F 78% 29.80 in 7.0 mi SW 10.4 mph - N/A   Scattered Clouds
8:53 PM 72.0 °F 64.9 °F 78% 29.77 in 7.0 mi SW 11.5 mph - N/A   Clear
9:53 PM 71.1 °F 64.0 °F 78% 29.81 in 6.0 mi West 16.1 mph - N/A   Haze
10:53 PM 68.0 °F 62.1 °F 81% 29.81 in 5.0 mi WNW 15.0 mph - N/A   Haze
11:53 PM 64.9 °F 57.9 °F 78% 29.83 in 10.0 mi WNW 23.0 mph - N/A   Clear